Year,Month,Day,Hour,Minute,Value (Times are PST for temperature in C)
2014,08,09,00,00,15.00
2014,08,09,00,01,15.00
2014,08,09,00,02,15.00
2014,08,09,00,03,15.00
2014,08,09,00,04,15.00
2014,08,09,00,05,15.00
2014,08,09,00,06,15.00
2014,08,09,00,07,15.00
2014,08,09,00,08,15.00
2014,08,09,00,09,14.90
2014,08,09,00,10,14.90
2014,08,09,00,11,14.90
2014,08,09,00,12,14.80
2014,08,09,00,13,14.80
2014,08,09,00,14,14.80
2014,08,09,00,15,14.70
2014,08,09,00,16,14.70
2014,08,09,00,17,14.70
2014,08,09,00,18,14.70
2014,08,09,00,19,14.60
2014,08,09,00,20,14.60
2014,08,09,00,21,14.60
2014,08,09,00,22,14.50
2014,08,09,00,23,14.50
2014,08,09,00,24,14.50
2014,08,09,00,25,14.40
2014,08,09,00,26,14.40
2014,08,09,00,27,14.40
2014,08,09,00,28,14.30
2014,08,09,00,29,14.30
2014,08,09,00,30,14.30
2014,08,09,00,31,14.30
2014,08,09,00,32,14.20
2014,08,09,00,33,14.20
2014,08,09,00,34,14.20
2014,08,09,00,35,14.20
2014,08,09,00,36,14.20
2014,08,09,00,37,14.20
2014,08,09,00,38,14.20
2014,08,09,00,39,14.20
2014,08,09,00,40,14.30
2014,08,09,00,41,14.30
2014,08,09,00,42,14.30
2014,08,09,00,43,14.30
2014,08,09,00,44,14.20
2014,08,09,00,45,14.20
2014,08,09,00,46,14.20
2014,08,09,00,47,14.20
2014,08,09,00,48,14.20
2014,08,09,00,49,14.20
2014,08,09,00,50,14.20
2014,08,09,00,51,14.20
2014,08,09,00,52,14.20
2014,08,09,00,53,14.20
2014,08,09,00,54,14.20
2014,08,09,00,55,14.20
2014,08,09,00,56,14.20
2014,08,09,00,57,14.20
2014,08,09,00,58,14.20
2014,08,09,00,59,14.20
2014,08,09,01,00,14.20
2014,08,09,01,01,14.20
2014,08,09,01,02,14.20
2014,08,09,01,03,14.20
2014,08,09,01,04,14.20
2014,08,09,01,05,14.20
2014,08,09,01,06,14.20
2014,08,09,01,07,14.20
2014,08,09,01,08,14.20
2014,08,09,01,09,14.20
2014,08,09,01,10,14.20
2014,08,09,01,11,14.20
2014,08,09,01,12,14.20
2014,08,09,01,13,14.20
2014,08,09,01,14,14.20
2014,08,09,01,15,14.10
2014,08,09,01,16,14.10
2014,08,09,01,17,14.10
2014,08,09,01,18,14.10
2014,08,09,01,19,14.00
2014,08,09,01,20,14.00
2014,08,09,01,21,13.90
2014,08,09,01,22,13.90
2014,08,09,01,23,13.90
2014,08,09,01,24,13.90
2014,08,09,01,25,13.80
2014,08,09,01,26,13.80
2014,08,09,01,27,13.80
2014,08,09,01,28,13.80
2014,08,09,01,29,13.80
2014,08,09,01,30,13.70
2014,08,09,01,31,13.70
2014,08,09,01,32,13.70
2014,08,09,01,33,13.70
2014,08,09,01,34,13.70
2014,08,09,01,35,13.60
2014,08,09,01,36,13.60
2014,08,09,01,37,13.60
2014,08,09,01,38,13.60
2014,08,09,01,39,13.60
2014,08,09,01,40,13.60
2014,08,09,01,41,13.60
2014,08,09,01,42,13.60
2014,08,09,01,43,13.60
2014,08,09,01,44,13.60
2014,08,09,01,45,13.60
2014,08,09,01,46,13.60
2014,08,09,01,47,13.60
2014,08,09,01,48,13.60
2014,08,09,01,49,13.60
2014,08,09,01,50,13.60
2014,08,09,01,51,13.50
2014,08,09,01,52,13.50
2014,08,09,01,53,13.50
2014,08,09,01,54,13.50
2014,08,09,01,55,13.40
2014,08,09,01,56,13.40
2014,08,09,01,57,13.40
2014,08,09,01,58,13.40
2014,08,09,01,59,13.40
2014,08,09,02,00,13.30
2014,08,09,02,01,13.30
2014,08,09,02,02,13.30
2014,08,09,02,03,13.30
2014,08,09,02,04,13.30
2014,08,09,02,05,13.30
2014,08,09,02,06,13.30
2014,08,09,02,07,13.30
2014,08,09,02,08,13.20
2014,08,09,02,09,13.20
2014,08,09,02,10,13.20
2014,08,09,02,11,13.20
2014,08,09,02,12,13.20
2014,08,09,02,13,13.20
2014,08,09,02,14,13.10
2014,08,09,02,15,13.10
2014,08,09,02,16,13.10
2014,08,09,02,17,13.00
2014,08,09,02,18,13.00
2014,08,09,02,19,13.00
2014,08,09,02,20,12.90
2014,08,09,02,21,12.90
2014,08,09,02,22,12.90
2014,08,09,02,23,12.90
2014,08,09,02,24,12.80
2014,08,09,02,25,12.80
2014,08,09,02,26,12.80
2014,08,09,02,27,12.80
2014,08,09,02,28,12.80
2014,08,09,02,29,12.80
2014,08,09,02,30,12.80
2014,08,09,02,31,12.70
2014,08,09,02,32,12.70
2014,08,09,02,33,12.70
2014,08,09,02,34,12.70
2014,08,09,02,35,12.70
2014,08,09,02,36,12.70
2014,08,09,02,37,12.70
2014,08,09,02,38,12.60
2014,08,09,02,39,12.60
2014,08,09,02,40,12.60
2014,08,09,02,41,12.60
2014,08,09,02,42,12.50
2014,08,09,02,43,12.50
2014,08,09,02,44,12.50
2014,08,09,02,45,12.50
2014,08,09,02,46,12.50
2014,08,09,02,47,12.50
2014,08,09,02,48,12.60
2014,08,09,02,49,12.60
2014,08,09,02,50,12.60
2014,08,09,02,51,12.70
2014,08,09,02,52,12.70
2014,08,09,02,53,12.70
2014,08,09,02,54,12.70
2014,08,09,02,55,12.70
2014,08,09,02,56,12.80
2014,08,09,02,57,12.80
2014,08,09,02,58,12.80
2014,08,09,02,59,12.80
2014,08,09,03,00,12.70
2014,08,09,03,01,12.70
2014,08,09,03,02,12.70
2014,08,09,03,03,12.70
2014,08,09,03,04,12.60
2014,08,09,03,05,12.60
2014,08,09,03,06,12.60
2014,08,09,03,07,12.60
2014,08,09,03,08,12.60
2014,08,09,03,09,12.50
2014,08,09,03,10,12.50
2014,08,09,03,11,12.40
2014,08,09,03,12,12.40
2014,08,09,03,13,12.40
2014,08,09,03,14,12.40
2014,08,09,03,15,12.40
2014,08,09,03,16,12.40
2014,08,09,03,17,12.30
2014,08,09,03,18,12.30
2014,08,09,03,19,12.30
2014,08,09,03,20,12.30
2014,08,09,03,21,12.30
2014,08,09,03,22,12.30
2014,08,09,03,23,12.30
2014,08,09,03,24,12.20
2014,08,09,03,25,12.20
2014,08,09,03,26,12.20
2014,08,09,03,27,12.20
2014,08,09,03,28,12.20
2014,08,09,03,29,12.10
2014,08,09,03,30,12.10
2014,08,09,03,31,12.10
2014,08,09,03,32,12.10
2014,08,09,03,33,12.20
2014,08,09,03,34,12.20
2014,08,09,03,35,12.20
2014,08,09,03,36,12.20
2014,08,09,03,37,12.30
2014,08,09,03,38,12.30
2014,08,09,03,39,12.30
2014,08,09,03,40,12.30
2014,08,09,03,41,12.30
2014,08,09,03,42,12.30
2014,08,09,03,43,12.20
2014,08,09,03,44,12.20
2014,08,09,03,45,12.20
2014,08,09,03,46,12.20
2014,08,09,03,47,12.20
2014,08,09,03,48,12.20
2014,08,09,03,49,12.10
2014,08,09,03,50,12.10
2014,08,09,03,51,12.10
2014,08,09,03,52,12.10
2014,08,09,03,53,12.00
2014,08,09,03,54,12.00
2014,08,09,03,55,12.00
2014,08,09,03,56,11.90
2014,08,09,03,57,11.90
2014,08,09,03,58,11.90
2014,08,09,03,59,11.80
2014,08,09,04,00,11.80
2014,08,09,04,01,11.80
2014,08,09,04,02,11.80
2014,08,09,04,03,11.80
2014,08,09,04,04,11.70
2014,08,09,04,05,11.70
2014,08,09,04,06,11.70
2014,08,09,04,07,11.70
2014,08,09,04,08,11.70
2014,08,09,04,09,11.70
2014,08,09,04,10,11.70
2014,08,09,04,11,11.60
2014,08,09,04,12,11.60
2014,08,09,04,13,11.60
2014,08,09,04,14,11.60
2014,08,09,04,15,11.60
2014,08,09,04,16,11.60
2014,08,09,04,17,11.60
2014,08,09,04,18,11.60
2014,08,09,04,19,11.60
2014,08,09,04,20,11.60
2014,08,09,04,21,11.60
2014,08,09,04,22,11.50
2014,08,09,04,23,11.50
2014,08,09,04,24,11.50
2014,08,09,04,25,11.50
2014,08,09,04,26,11.50
2014,08,09,04,27,11.40
2014,08,09,04,28,11.40
2014,08,09,04,29,11.40
2014,08,09,04,30,11.40
2014,08,09,04,31,11.40
2014,08,09,04,32,11.40
2014,08,09,04,33,11.40
2014,08,09,04,34,11.40
2014,08,09,04,35,11.40
2014,08,09,04,36,11.30
2014,08,09,04,37,11.30
2014,08,09,04,38,11.30
2014,08,09,04,39,11.30
2014,08,09,04,40,11.30
2014,08,09,04,41,11.30
2014,08,09,04,42,11.30
2014,08,09,04,43,11.20
2014,08,09,04,44,11.20
2014,08,09,04,45,11.20
2014,08,09,04,46,11.20
2014,08,09,04,47,11.20
2014,08,09,04,48,11.20
2014,08,09,04,49,11.10
2014,08,09,04,50,11.10
2014,08,09,04,51,11.10
2014,08,09,04,52,11.10
2014,08,09,04,53,11.10
2014,08,09,04,54,11.10
2014,08,09,04,55,11.10
2014,08,09,04,56,11.10
2014,08,09,04,57,11.10
2014,08,09,04,58,11.00
2014,08,09,04,59,11.00
2014,08,09,05,00,11.00
2014,08,09,05,01,11.00
2014,08,09,05,02,11.00
2014,08,09,05,03,11.00
2014,08,09,05,04,11.00
2014,08,09,05,05,10.90
2014,08,09,05,06,10.90
2014,08,09,05,07,10.90
2014,08,09,05,08,10.90
2014,08,09,05,09,10.90
2014,08,09,05,10,10.90
2014,08,09,05,11,10.90
2014,08,09,05,12,10.90
2014,08,09,05,13,10.80
2014,08,09,05,14,10.80
2014,08,09,05,15,10.80
2014,08,09,05,16,10.80
2014,08,09,05,17,10.80
2014,08,09,05,18,10.80
2014,08,09,05,19,10.80
2014,08,09,05,20,10.80
2014,08,09,05,21,10.80
2014,08,09,05,22,10.80
2014,08,09,05,23,10.80
2014,08,09,05,24,10.80
2014,08,09,05,25,10.80
2014,08,09,05,26,10.80
2014,08,09,05,27,10.80
2014,08,09,05,28,10.80
2014,08,09,05,29,10.80
2014,08,09,05,30,10.70
2014,08,09,05,31,10.70
2014,08,09,05,32,10.70
2014,08,09,05,33,10.70
2014,08,09,05,34,10.70
2014,08,09,05,35,10.70
2014,08,09,05,36,10.70
2014,08,09,05,37,10.70
2014,08,09,05,38,10.70
2014,08,09,05,39,10.70
2014,08,09,05,40,10.70
2014,08,09,05,41,10.60
2014,08,09,05,42,10.60
2014,08,09,05,43,10.60
2014,08,09,05,44,10.60
2014,08,09,05,45,10.60
2014,08,09,05,46,10.60
2014,08,09,05,47,10.60
2014,08,09,05,48,10.60
2014,08,09,05,49,10.60
2014,08,09,05,50,10.60
2014,08,09,05,51,10.60
2014,08,09,05,52,10.60
2014,08,09,05,53,10.60
2014,08,09,05,54,10.50
2014,08,09,05,55,10.50
2014,08,09,05,56,10.50
2014,08,09,05,57,10.50
2014,08,09,05,58,10.50
2014,08,09,05,59,10.50
2014,08,09,06,00,10.50
2014,08,09,06,01,10.50
2014,08,09,06,02,10.50
2014,08,09,06,03,10.40
2014,08,09,06,04,10.40
2014,08,09,06,05,10.40
2014,08,09,06,06,10.40
2014,08,09,06,07,10.40
2014,08,09,06,08,10.40
2014,08,09,06,09,10.40
2014,08,09,06,10,10.40
2014,08,09,06,11,10.40
2014,08,09,06,12,10.40
2014,08,09,06,13,10.40
2014,08,09,06,14,10.30
2014,08,09,06,15,10.30
2014,08,09,06,16,10.30
2014,08,09,06,17,10.30
2014,08,09,06,18,10.30
2014,08,09,06,19,10.30
2014,08,09,06,20,10.30
2014,08,09,06,21,10.30
2014,08,09,06,22,10.30
2014,08,09,06,23,10.30
2014,08,09,06,24,10.30
2014,08,09,06,25,10.40
2014,08,09,06,26,10.40
2014,08,09,06,27,10.30
2014,08,09,06,28,10.40
2014,08,09,06,29,10.40
2014,08,09,06,30,10.40
2014,08,09,06,31,10.40
2014,08,09,06,32,10.40
2014,08,09,06,33,10.40
2014,08,09,06,34,10.40
2014,08,09,06,35,10.40
2014,08,09,06,36,10.40
2014,08,09,06,37,10.40
2014,08,09,06,38,10.30
2014,08,09,06,39,10.40
2014,08,09,06,40,10.40
2014,08,09,06,41,10.40
2014,08,09,06,42,10.40
2014,08,09,06,43,10.40
2014,08,09,06,44,10.40
2014,08,09,06,45,10.40
2014,08,09,06,46,10.40
2014,08,09,06,47,10.40
2014,08,09,06,48,10.40
2014,08,09,06,49,10.40
2014,08,09,06,50,10.40
2014,08,09,06,51,10.40
2014,08,09,06,52,10.50
2014,08,09,06,53,10.50
2014,08,09,06,54,10.50
2014,08,09,06,55,10.50
2014,08,09,06,56,10.50
2014,08,09,06,57,10.50
2014,08,09,06,58,10.50
2014,08,09,06,59,10.50
2014,08,09,07,00,10.60
2014,08,09,07,01,10.60
2014,08,09,07,02,10.60
2014,08,09,07,03,10.60
2014,08,09,07,04,10.60
2014,08,09,07,05,10.60
2014,08,09,07,06,10.60
2014,08,09,07,07,10.60
2014,08,09,07,08,10.60
2014,08,09,07,09,10.70
2014,08,09,07,10,10.70
2014,08,09,07,11,10.70
2014,08,09,07,12,10.70
2014,08,09,07,13,10.70
2014,08,09,07,14,10.70
2014,08,09,07,15,10.70
2014,08,09,07,16,10.70
2014,08,09,07,17,10.80
2014,08,09,07,18,10.80
2014,08,09,07,19,10.80
2014,08,09,07,20,10.80
2014,08,09,07,21,10.80
2014,08,09,07,22,10.80
2014,08,09,07,23,10.80
2014,08,09,07,24,10.80
2014,08,09,07,25,10.90
2014,08,09,07,26,10.90
2014,08,09,07,27,10.90
2014,08,09,07,28,10.90
2014,08,09,07,29,11.00
2014,08,09,07,30,11.00
2014,08,09,07,31,11.00
2014,08,09,07,32,11.00
2014,08,09,07,33,11.10
2014,08,09,07,34,11.10
2014,08,09,07,35,11.10
2014,08,09,07,36,11.10
2014,08,09,07,37,11.20
2014,08,09,07,38,11.20
2014,08,09,07,39,11.20
2014,08,09,07,40,11.20
2014,08,09,07,41,11.20
2014,08,09,07,42,11.20
2014,08,09,07,43,11.30
2014,08,09,07,44,11.30
2014,08,09,07,45,11.30
2014,08,09,07,46,11.30
2014,08,09,07,47,11.40
2014,08,09,07,48,11.40
2014,08,09,07,49,11.50
2014,08,09,07,50,11.50
2014,08,09,07,51,11.60
2014,08,09,07,52,11.70
2014,08,09,07,53,11.80
2014,08,09,07,54,11.80
2014,08,09,07,55,11.90
2014,08,09,07,56,12.00
2014,08,09,07,57,12.00
2014,08,09,07,58,12.10
2014,08,09,07,59,12.20
2014,08,09,08,00,12.20
2014,08,09,08,01,12.30
2014,08,09,08,02,12.40
2014,08,09,08,03,12.50
2014,08,09,08,04,12.60
2014,08,09,08,05,12.70
2014,08,09,08,06,12.80
2014,08,09,08,07,12.90
2014,08,09,08,08,13.00
2014,08,09,08,09,13.10
2014,08,09,08,10,13.20
2014,08,09,08,11,13.20
2014,08,09,08,12,13.30
2014,08,09,08,13,13.40
2014,08,09,08,14,13.40
2014,08,09,08,15,13.50
2014,08,09,08,16,13.60
2014,08,09,08,17,13.70
2014,08,09,08,18,13.70
2014,08,09,08,19,13.80
2014,08,09,08,20,13.90
2014,08,09,08,21,13.90
2014,08,09,08,22,14.00
2014,08,09,08,23,14.10
2014,08,09,08,24,14.20
2014,08,09,08,25,14.20
2014,08,09,08,26,14.20
2014,08,09,08,27,14.30
2014,08,09,08,28,14.30
2014,08,09,08,29,14.30
2014,08,09,08,30,14.40
2014,08,09,08,31,14.40
2014,08,09,08,32,14.40
2014,08,09,08,33,14.50
2014,08,09,08,34,14.50
2014,08,09,08,35,14.60
2014,08,09,08,36,14.60
2014,08,09,08,37,14.60
2014,08,09,08,38,14.70
2014,08,09,08,39,14.70
2014,08,09,08,40,14.80
2014,08,09,08,41,14.90
2014,08,09,08,42,15.00
2014,08,09,08,43,15.00
2014,08,09,08,44,15.00
2014,08,09,08,45,15.00
2014,08,09,08,46,15.00
2014,08,09,08,47,15.10
2014,08,09,08,48,15.20
2014,08,09,08,49,15.30
2014,08,09,08,50,15.30
2014,08,09,08,51,15.30
2014,08,09,08,52,15.40
2014,08,09,08,53,15.40
2014,08,09,08,54,15.40
2014,08,09,08,55,15.40
2014,08,09,08,56,15.50
2014,08,09,08,57,15.50
2014,08,09,08,58,15.60
2014,08,09,08,59,15.60
2014,08,09,09,00,15.60
2014,08,09,09,01,15.60
2014,08,09,09,02,15.70
2014,08,09,09,03,15.70
2014,08,09,09,04,15.70
2014,08,09,09,05,15.70
2014,08,09,09,06,15.80
2014,08,09,09,07,15.80
2014,08,09,09,08,15.80
2014,08,09,09,09,15.80
2014,08,09,09,10,15.80
2014,08,09,09,11,15.90
2014,08,09,09,12,15.90
2014,08,09,09,13,16.00
2014,08,09,09,14,16.00
2014,08,09,09,15,16.10
2014,08,09,09,16,16.10
2014,08,09,09,17,16.20
2014,08,09,09,18,16.20
2014,08,09,09,19,16.30
2014,08,09,09,20,16.40
2014,08,09,09,21,16.50
2014,08,09,09,22,16.60
2014,08,09,09,23,16.60
2014,08,09,09,24,16.70
2014,08,09,09,25,16.70
2014,08,09,09,26,16.80
2014,08,09,09,27,16.80
2014,08,09,09,28,16.90
2014,08,09,09,29,17.00
2014,08,09,09,30,17.10
2014,08,09,09,31,17.10
2014,08,09,09,32,17.20
2014,08,09,09,33,17.30
2014,08,09,09,34,17.30
2014,08,09,09,35,17.40
2014,08,09,09,36,17.50
2014,08,09,09,37,17.60
2014,08,09,09,38,17.70
2014,08,09,09,39,17.80
2014,08,09,09,40,17.90
2014,08,09,09,41,18.00
2014,08,09,09,42,18.10
2014,08,09,09,43,18.20
2014,08,09,09,44,18.20
2014,08,09,09,45,18.30
2014,08,09,09,46,18.30
2014,08,09,09,47,18.40
2014,08,09,09,48,18.40
2014,08,09,09,49,18.50
2014,08,09,09,50,18.60
2014,08,09,09,51,18.60
2014,08,09,09,52,18.70
2014,08,09,09,53,18.80
2014,08,09,09,54,18.80
2014,08,09,09,55,18.80
2014,08,09,09,56,18.80
2014,08,09,09,57,18.80
2014,08,09,09,58,18.90
2014,08,09,09,59,18.90
2014,08,09,10,00,18.90
2014,08,09,10,01,18.80
2014,08,09,10,02,18.90
2014,08,09,10,03,18.90
2014,08,09,10,04,18.90
2014,08,09,10,05,18.90
2014,08,09,10,06,18.90
2014,08,09,10,07,18.90
2014,08,09,10,08,19.00
2014,08,09,10,09,19.00
2014,08,09,10,10,19.10
2014,08,09,10,11,19.10
2014,08,09,10,12,19.20
2014,08,09,10,13,19.20
2014,08,09,10,14,19.30
2014,08,09,10,15,19.40
2014,08,09,10,16,19.50
2014,08,09,10,17,19.60
2014,08,09,10,18,19.70
2014,08,09,10,19,19.80
2014,08,09,10,20,19.90
2014,08,09,10,21,20.00
2014,08,09,10,22,20.10
2014,08,09,10,23,20.10
2014,08,09,10,24,20.10
2014,08,09,10,25,20.10
2014,08,09,10,26,20.10
2014,08,09,10,27,20.10
2014,08,09,10,28,20.00
2014,08,09,10,29,20.10
2014,08,09,10,30,20.10
2014,08,09,10,31,20.20
2014,08,09,10,32,20.30
2014,08,09,10,33,20.40
2014,08,09,10,34,20.40
2014,08,09,10,35,20.50
2014,08,09,10,36,20.60
2014,08,09,10,37,20.80
2014,08,09,10,38,20.80
2014,08,09,10,39,20.90
2014,08,09,10,40,21.00
2014,08,09,10,41,21.00
2014,08,09,10,42,21.00
2014,08,09,10,43,21.00
2014,08,09,10,44,21.00
2014,08,09,10,45,21.10
2014,08,09,10,46,21.10
2014,08,09,10,47,21.20
2014,08,09,10,48,21.20
2014,08,09,10,49,21.20
2014,08,09,10,50,21.20
2014,08,09,10,51,21.20
2014,08,09,10,52,21.20
2014,08,09,10,53,21.20
2014,08,09,10,54,21.30
2014,08,09,10,55,21.30
2014,08,09,10,56,21.40
2014,08,09,10,57,21.40
2014,08,09,10,58,21.50
2014,08,09,10,59,21.50
2014,08,09,11,00,21.50
2014,08,09,11,01,21.60
2014,08,09,11,02,21.60
2014,08,09,11,03,21.70
2014,08,09,11,04,21.80
2014,08,09,11,05,21.80
2014,08,09,11,06,21.90
2014,08,09,11,07,21.90
2014,08,09,11,08,21.90
2014,08,09,11,09,21.90
2014,08,09,11,10,21.90
2014,08,09,11,11,22.00
2014,08,09,11,12,22.10
2014,08,09,11,13,22.20
2014,08,09,11,14,22.20
2014,08,09,11,15,22.30
2014,08,09,11,16,22.30
2014,08,09,11,17,22.40
2014,08,09,11,18,22.40
2014,08,09,11,19,22.50
2014,08,09,11,20,22.60
2014,08,09,11,21,22.70
2014,08,09,11,22,22.80
2014,08,09,11,23,22.80
2014,08,09,11,24,22.80
2014,08,09,11,25,22.90
2014,08,09,11,26,22.80
2014,08,09,11,27,22.80
2014,08,09,11,28,22.70
2014,08,09,11,29,22.70
2014,08,09,11,30,22.70
2014,08,09,11,31,22.70
2014,08,09,11,32,22.70
2014,08,09,11,33,22.80
2014,08,09,11,34,22.80
2014,08,09,11,35,22.80
2014,08,09,11,36,22.90
2014,08,09,11,37,23.00
2014,08,09,11,38,23.20
2014,08,09,11,39,23.30
2014,08,09,11,40,23.30
2014,08,09,11,41,23.40
2014,08,09,11,42,23.30
2014,08,09,11,43,23.30
2014,08,09,11,44,23.40
2014,08,09,11,45,23.40
2014,08,09,11,46,23.50
2014,08,09,11,47,23.60
2014,08,09,11,48,23.70
2014,08,09,11,49,23.70
2014,08,09,11,50,23.80
2014,08,09,11,51,23.80
2014,08,09,11,52,23.90
2014,08,09,11,53,24.00
2014,08,09,11,54,23.90
2014,08,09,11,55,23.90
2014,08,09,11,56,23.80
2014,08,09,11,57,23.80
2014,08,09,11,58,23.80
2014,08,09,11,59,23.90
2014,08,09,12,00,23.90
2014,08,09,12,01,24.00
2014,08,09,12,02,24.10
2014,08,09,12,03,24.20
2014,08,09,12,04,24.20
2014,08,09,12,05,24.20
2014,08,09,12,06,24.20
2014,08,09,12,07,24.20
2014,08,09,12,08,24.10
2014,08,09,12,09,24.10
2014,08,09,12,10,24.20
2014,08,09,12,11,24.30
2014,08,09,12,12,24.30
2014,08,09,12,13,24.40
2014,08,09,12,14,24.50
2014,08,09,12,15,24.70
2014,08,09,12,16,24.80
2014,08,09,12,17,24.90
2014,08,09,12,18,25.00
2014,08,09,12,19,25.10
2014,08,09,12,20,25.20
2014,08,09,12,21,25.30
2014,08,09,12,22,25.30
2014,08,09,12,23,25.40
2014,08,09,12,24,25.40
2014,08,09,12,25,25.40
2014,08,09,12,26,25.50
2014,08,09,12,27,25.40
2014,08,09,12,28,25.30
2014,08,09,12,29,25.20
2014,08,09,12,30,25.20
2014,08,09,12,31,25.20
2014,08,09,12,32,25.30
2014,08,09,12,33,25.30
2014,08,09,12,34,25.40
2014,08,09,12,35,25.50
2014,08,09,12,36,25.50
2014,08,09,12,37,25.60
2014,08,09,12,38,25.70
2014,08,09,12,39,25.80
2014,08,09,12,40,25.90
2014,08,09,12,41,25.90
2014,08,09,12,42,26.00
2014,08,09,12,43,26.10
2014,08,09,12,44,26.10
2014,08,09,12,45,26.10
2014,08,09,12,46,26.20
2014,08,09,12,47,26.20
2014,08,09,12,48,26.30
2014,08,09,12,49,26.40
2014,08,09,12,50,26.30
2014,08,09,12,51,26.30
2014,08,09,12,52,26.30
2014,08,09,12,53,26.40
2014,08,09,12,54,26.40
2014,08,09,12,55,26.30
2014,08,09,12,56,26.30
2014,08,09,12,57,26.30
2014,08,09,12,58,26.30
2014,08,09,12,59,26.30
2014,08,09,13,00,26.30
2014,08,09,13,01,26.40
2014,08,09,13,02,26.40
2014,08,09,13,03,26.40
2014,08,09,13,04,26.50
2014,08,09,13,05,26.60
2014,08,09,13,06,26.50
2014,08,09,13,07,26.50
2014,08,09,13,08,26.40
2014,08,09,13,09,26.40
2014,08,09,13,10,26.40
2014,08,09,13,11,26.40
2014,08,09,13,12,26.40
2014,08,09,13,13,26.30
2014,08,09,13,14,26.40
2014,08,09,13,15,26.40
2014,08,09,13,16,26.50
2014,08,09,13,17,26.50
2014,08,09,13,18,26.60
2014,08,09,13,19,26.70
2014,08,09,13,20,26.70
2014,08,09,13,21,26.70
2014,08,09,13,22,26.70
2014,08,09,13,23,26.70
2014,08,09,13,24,26.80
2014,08,09,13,25,26.90
2014,08,09,13,26,26.90
2014,08,09,13,27,26.90
2014,08,09,13,28,26.90
2014,08,09,13,29,27.00
2014,08,09,13,30,27.00
2014,08,09,13,31,27.10
2014,08,09,13,32,27.10
2014,08,09,13,33,27.20
2014,08,09,13,34,27.20
2014,08,09,13,35,27.30
2014,08,09,13,36,27.30
2014,08,09,13,37,27.20
2014,08,09,13,38,27.20
2014,08,09,13,39,27.20
2014,08,09,13,40,27.20
2014,08,09,13,41,27.20
2014,08,09,13,42,27.20
2014,08,09,13,43,27.20
2014,08,09,13,44,27.20
2014,08,09,13,45,27.30
2014,08,09,13,46,27.30
2014,08,09,13,47,27.20
2014,08,09,13,48,27.10
2014,08,09,13,49,27.10
2014,08,09,13,50,27.10
2014,08,09,13,51,27.20
2014,08,09,13,52,27.20
2014,08,09,13,53,27.20
2014,08,09,13,54,27.20
2014,08,09,13,55,27.20
2014,08,09,13,56,27.20
2014,08,09,13,57,27.30
2014,08,09,13,58,27.40
2014,08,09,13,59,27.40
2014,08,09,14,00,27.30
2014,08,09,14,01,27.30
2014,08,09,14,02,27.30
2014,08,09,14,03,27.20
2014,08,09,14,04,27.20
2014,08,09,14,05,27.20
2014,08,09,14,06,27.20
2014,08,09,14,07,27.20
2014,08,09,14,08,27.20
2014,08,09,14,09,27.30
2014,08,09,14,10,27.20
2014,08,09,14,11,27.20
2014,08,09,14,12,27.20
2014,08,09,14,13,27.30
2014,08,09,14,14,27.30
2014,08,09,14,15,27.30
2014,08,09,14,16,27.30
2014,08,09,14,17,27.20
2014,08,09,14,18,27.20
2014,08,09,14,19,27.10
2014,08,09,14,20,27.10
2014,08,09,14,21,27.10
2014,08,09,14,22,27.10
2014,08,09,14,23,27.20
2014,08,09,14,24,27.30
2014,08,09,14,25,27.40
2014,08,09,14,26,27.50
2014,08,09,14,27,27.70
2014,08,09,14,28,27.80
2014,08,09,14,29,28.00
2014,08,09,14,30,28.10
2014,08,09,14,31,28.20
2014,08,09,14,32,28.30
2014,08,09,14,33,28.30
2014,08,09,14,34,28.40
2014,08,09,14,35,28.40
2014,08,09,14,36,28.40
2014,08,09,14,37,28.40
2014,08,09,14,38,28.30
2014,08,09,14,39,28.30
2014,08,09,14,40,28.20
2014,08,09,14,41,28.10
2014,08,09,14,42,28.10
2014,08,09,14,43,28.10
2014,08,09,14,44,28.20
2014,08,09,14,45,28.20
2014,08,09,14,46,28.30
2014,08,09,14,47,28.40
2014,08,09,14,48,28.40
2014,08,09,14,49,28.40
2014,08,09,14,50,28.40
2014,08,09,14,51,28.30
2014,08,09,14,52,28.20
2014,08,09,14,53,28.10
2014,08,09,14,54,27.90
2014,08,09,14,55,27.70
2014,08,09,14,56,27.60
2014,08,09,14,57,27.50
2014,08,09,14,58,27.40
2014,08,09,14,59,27.30
2014,08,09,15,00,27.20
2014,08,09,15,01,27.20
2014,08,09,15,02,27.20
2014,08,09,15,03,27.20
2014,08,09,15,04,27.30
2014,08,09,15,05,27.30
2014,08,09,15,06,27.40
2014,08,09,15,07,27.50
2014,08,09,15,08,27.60
2014,08,09,15,09,27.70
2014,08,09,15,10,27.70
2014,08,09,15,11,27.70
2014,08,09,15,12,27.70
2014,08,09,15,13,27.70
2014,08,09,15,14,27.70
2014,08,09,15,15,27.80
2014,08,09,15,16,27.80
2014,08,09,15,17,27.90
2014,08,09,15,18,28.00
2014,08,09,15,19,28.00
2014,08,09,15,20,28.10
2014,08,09,15,21,28.20
2014,08,09,15,22,28.40
2014,08,09,15,23,28.50
2014,08,09,15,24,28.60
2014,08,09,15,25,28.60
2014,08,09,15,26,28.50
2014,08,09,15,27,28.60
2014,08,09,15,28,28.60
2014,08,09,15,29,28.60
2014,08,09,15,30,28.70
2014,08,09,15,31,28.70
2014,08,09,15,32,28.70
2014,08,09,15,33,28.60
2014,08,09,15,34,28.50
2014,08,09,15,35,28.40
2014,08,09,15,36,28.20
2014,08,09,15,37,28.20
2014,08,09,15,38,28.10
2014,08,09,15,39,28.00
2014,08,09,15,40,27.80
2014,08,09,15,41,27.70
2014,08,09,15,42,27.60
2014,08,09,15,43,27.60
2014,08,09,15,44,27.60
2014,08,09,15,45,27.60
2014,08,09,15,46,27.50
2014,08,09,15,47,27.50
2014,08,09,15,48,27.50
2014,08,09,15,49,27.50
2014,08,09,15,50,27.40
2014,08,09,15,51,27.40
2014,08,09,15,52,27.40
2014,08,09,15,53,27.40
2014,08,09,15,54,27.50
2014,08,09,15,55,27.60
2014,08,09,15,56,27.70
2014,08,09,15,57,27.70
2014,08,09,15,58,27.80
2014,08,09,15,59,27.90
2014,08,09,16,00,27.90
2014,08,09,16,01,27.80
2014,08,09,16,02,27.80
2014,08,09,16,03,27.70
2014,08,09,16,04,27.60
2014,08,09,16,05,27.50
2014,08,09,16,06,27.50
2014,08,09,16,07,27.50
2014,08,09,16,08,27.40
2014,08,09,16,09,27.30
2014,08,09,16,10,27.30
2014,08,09,16,11,27.30
2014,08,09,16,12,27.20
2014,08,09,16,13,27.20
2014,08,09,16,14,27.10
2014,08,09,16,15,27.00
2014,08,09,16,16,26.90
2014,08,09,16,17,26.90
2014,08,09,16,18,26.90
2014,08,09,16,19,26.90
2014,08,09,16,20,26.90
2014,08,09,16,21,26.90
2014,08,09,16,22,26.90
2014,08,09,16,23,26.90
2014,08,09,16,24,26.90
2014,08,09,16,25,26.90
2014,08,09,16,26,26.90
2014,08,09,16,27,26.80
2014,08,09,16,28,26.90
2014,08,09,16,29,26.90
2014,08,09,16,30,26.90
2014,08,09,16,31,27.00
2014,08,09,16,32,27.00
2014,08,09,16,33,27.10
2014,08,09,16,34,27.10
2014,08,09,16,35,27.10
2014,08,09,16,36,27.10
2014,08,09,16,37,27.00
2014,08,09,16,38,27.00
2014,08,09,16,39,26.90
2014,08,09,16,40,26.90
2014,08,09,16,41,26.90
2014,08,09,16,42,26.90
2014,08,09,16,43,26.90
2014,08,09,16,44,27.00
2014,08,09,16,45,27.00
2014,08,09,16,46,27.00
2014,08,09,16,47,26.90
2014,08,09,16,48,26.80
2014,08,09,16,49,26.80
2014,08,09,16,50,26.70
2014,08,09,16,51,26.60
2014,08,09,16,52,26.60
2014,08,09,16,53,26.60
2014,08,09,16,54,26.60
2014,08,09,16,55,26.70
2014,08,09,16,56,26.70
2014,08,09,16,57,26.70
2014,08,09,16,58,26.70
2014,08,09,16,59,26.80
2014,08,09,17,00,26.80
2014,08,09,17,01,26.80
2014,08,09,17,02,26.80
2014,08,09,17,03,26.80
2014,08,09,17,04,26.90
2014,08,09,17,05,26.80
2014,08,09,17,06,26.80
2014,08,09,17,07,26.80
2014,08,09,17,08,26.70
2014,08,09,17,09,26.70
2014,08,09,17,10,26.70
2014,08,09,17,11,26.70
2014,08,09,17,12,26.60
2014,08,09,17,13,26.60
2014,08,09,17,14,26.60
2014,08,09,17,15,26.60
2014,08,09,17,16,26.60
2014,08,09,17,17,26.60
2014,08,09,17,18,26.60
2014,08,09,17,19,26.70